Weather History for Cincinnati, OH

Change the Weather History Date:

Wednesday, February 6, 2013

  Actual Average Record
Temperature  
Mean Temperature 33 °F -  
Max Temperature 39 °F 38 °F 66 °F (2008)
Min Temperature 27 °F 22 °F -4 °F (1977)
Degree Days  
Heating Degree Days 32    
Moisture  
Dew Point 27 °F    
Average Humidity 75    
Maximum Humidity 92    
Minimum Humidity 65    
Precipitation  
Precipitation 0.00 in - - ()
Sea Level Pressure  
Sea Level Pressure 30.23 in    
Wind  
Wind Speed 5 mph (NNE)    
Max Wind Speed 8 mph    
Max Gust Speed -    
Visibility 7 miles    
Events      
Averages and records for this station are not official NWS values.
T = Trace of Precipitation, MM = Missing Value Source: NWS Daily Summary

Daily Weather History Graph

Daily Weather History Graph

Search for Another Location

Airport:

Trip Planner

Search our weather history database for the weather conditions in past years. The results will help you decide how hot, cold, wet, or windy it might be!

Date:

Astronomy

Feb. 06, 2013 Rise Set
Actual Time 7:39 AM EST 6:04 PM EST
Civil Twilight 7:11 AM EST 6:32 PM EST
Nautical Twilight 6:39 AM EST 7:04 PM EST
Astronomical Twilight 6:08 AM EST 7:35 PM EST
Moon 4:21 AM EST (2/6) 2:23 PM EST (2/6)
Length of Visible Light 11h 21m
Length of Day
10h 25m
Waning Crescent, 17% of the Moon is Illuminated
Feb 6
Waning Crescent
Feb 10
New
Feb 17
First Quarter
Feb 25
Full
Mar 4
Last Quarter

Hourly Weather History & Observations

Time (EST) Temp. Windchill Dew Point Humidity Pressure Visibility Wind Dir Wind Speed Gust Speed Precip Events Conditions
12:23 AM 39.2 °F 33.6 °F 30.2 °F 70% 30.05 in 9.0 mi WNW 8.1 mph - N/A   Overcast
12:53 AM 37.9 °F 33.5 °F 30.0 °F 73% 30.07 in 9.0 mi North 5.8 mph - N/A   Overcast
1:53 AM 37.0 °F 34.5 °F 28.9 °F 73% 30.09 in 10.0 mi Variable 3.5 mph - N/A   Overcast
2:53 AM 37.0 °F 34.5 °F 28.9 °F 73% 30.11 in 10.0 mi WNW 3.5 mph - N/A   Overcast
3:53 AM 36.0 °F 31.1 °F 28.9 °F 76% 30.13 in 10.0 mi WNW 5.8 mph - N/A   Overcast
4:53 AM 36.0 °F 30.3 °F 28.9 °F 76% 30.16 in 10.0 mi NNW 6.9 mph - N/A   Overcast
5:53 AM 35.1 °F 31.0 °F 28.0 °F 76% 30.18 in 9.0 mi NW 4.6 mph - N/A   Overcast
6:53 AM 34.0 °F 28.8 °F 28.0 °F 79% 30.21 in 8.0 mi North 5.8 mph - N/A   Overcast
7:53 AM 33.1 °F 26.1 °F 28.0 °F 82% 30.23 in 7.0 mi North 8.1 mph - N/A   Overcast
8:53 AM 34.0 °F 28.8 °F 27.0 °F 75% 30.26 in 6.0 mi North 5.8 mph - N/A   Haze
9:53 AM 34.0 °F 29.8 °F 27.0 °F 75% 30.27 in 6.0 mi NE 4.6 mph - N/A   Haze
10:53 AM 34.0 °F 28.0 °F 27.0 °F 75% 30.28 in 5.0 mi ENE 6.9 mph - N/A   Haze
11:53 AM 35.1 °F 31.0 °F 27.0 °F 72% 30.29 in 6.0 mi NNE 4.6 mph - N/A   Haze
12:53 PM 36.0 °F - 27.0 °F 70% 30.29 in 6.0 mi Calm Calm - N/A   Haze
1:53 PM 37.0 °F - 27.0 °F 67% 30.28 in 7.0 mi Calm Calm - N/A   Overcast
2:19 PM 37.4 °F - 28.4 °F 70% 30.27 in 7.0 mi Calm Calm - N/A   Overcast
2:53 PM 37.0 °F - 28.0 °F 70% 30.28 in 7.0 mi Calm Calm - N/A   Overcast
3:18 PM 37.4 °F - 26.6 °F 65% 30.27 in 7.0 mi Calm Calm - N/A   Overcast
3:53 PM 37.9 °F - 27.0 °F 65% 30.27 in 8.0 mi Calm Calm - N/A   Overcast
4:53 PM 37.0 °F - 27.0 °F 67% 30.27 in 9.0 mi Calm Calm - N/A   Overcast
5:53 PM 36.0 °F 33.3 °F 28.0 °F 73% 30.29 in 6.0 mi ENE 3.5 mph - N/A   Haze
6:53 PM 35.1 °F 31.0 °F 28.0 °F 76% 30.29 in 7.0 mi ENE 4.6 mph - N/A   Overcast
7:11 PM 33.8 °F 30.8 °F 26.6 °F 75% 30.27 in 8.0 mi East 3.5 mph - N/A   Scattered Clouds
7:53 PM 32.0 °F 26.4 °F 26.1 °F 79% 30.27 in 7.0 mi East 5.8 mph - N/A   Clear
8:53 PM 30.0 °F 26.5 °F 25.0 °F 82% 30.27 in 7.0 mi NNE 3.5 mph - N/A   Clear
9:53 PM 27.0 °F 23.0 °F 24.1 °F 89% 30.27 in 6.0 mi North 3.5 mph - N/A   Clear
10:53 PM 28.0 °F - 26.1 °F 92% 30.28 in 5.0 mi Calm Calm - N/A   Clear
11:53 PM 28.9 °F - 26.1 °F 89% 30.25 in 5.0 mi Calm Calm - N/A   Clear